MPH955 KSFO-KSAN

Flight info

Callsign MPH955
Flight time 1h 5m
Altitude 33000
Route WESLA5 YYUNG LAX COMIX2
Aircraft MD11/H-SDE1E2E3FGHIJ2J3J4J5M1RWXY/LB1D1

Departure

Time 2026-04-20 03:31
Airport San Francisco International Airport (KSFO)

Arrival

Time 2026-04-20 04:37
Airport San Diego International Airport (KSAN)
Time Latitude Longitude Altitude Speed Heading
2026-04-20 03:01 37.63615 -122.38762 0 ft 0 kts 61°
2026-04-20 03:06 37.63615 -122.38763 29 ft 0 kts 61°
2026-04-20 03:14 37.63609 -122.38775 28 ft 4 kts 61°
2026-04-20 03:14 37.63599 -122.38799 27 ft 4 kts 68°
2026-04-20 03:14 37.63593 -122.38826 28 ft 4 kts 105°
2026-04-20 03:14 37.63603 -122.38849 27 ft 4 kts 147°
2026-04-20 03:15 37.63625 -122.38866 28 ft 4 kts 148°
2026-04-20 03:15 37.63630 -122.38870 28 ft 0 kts 148°
2026-04-20 03:19 37.63597 -122.38845 26 ft 12 kts 148°
2026-04-20 03:20 37.63522 -122.38807 29 ft 7 kts 182°
2026-04-20 03:20 37.63496 -122.38824 29 ft 4 kts 213°
2026-04-20 03:20 37.63463 -122.38862 28 ft 10 kts 224°
2026-04-20 03:20 37.63431 -122.38964 29 ft 15 kts 255°
2026-04-20 03:21 37.63381 -122.39111 29 ft 21 kts 244°
2026-04-20 03:21 37.63250 -122.39159 29 ft 23 kts 156°
2026-04-20 03:21 37.63191 -122.39157 29 ft 7 kts 207°
2026-04-20 03:21 37.63157 -122.39222 29 ft 11 kts 245°
2026-04-20 03:22 37.63122 -122.39311 29 ft 14 kts 245°
2026-04-20 03:22 37.63068 -122.39439 29 ft 18 kts 244°
2026-04-20 03:22 37.63042 -122.39592 29 ft 20 kts 244°
2026-04-20 03:22 37.62916 -122.39662 29 ft 23 kts 179°
2026-04-20 03:23 37.62751 -122.39651 29 ft 26 kts 155°
2026-04-20 03:23 37.62602 -122.39497 29 ft 30 kts 135°
2026-04-20 03:23 37.62483 -122.39259 28 ft 34 kts 118°
2026-04-20 03:23 37.62365 -122.38982 29 ft 36 kts 118°
2026-04-20 03:24 37.62268 -122.38752 29 ft 26 kts 117°
2026-04-20 03:24 37.62187 -122.38557 29 ft 24 kts 118°
2026-04-20 03:24 37.62114 -122.38383 29 ft 21 kts 118°
2026-04-20 03:24 37.62048 -122.38228 29 ft 19 kts 118°
2026-04-20 03:25 37.61992 -122.38093 29 ft 16 kts 116°
2026-04-20 03:25 37.61935 -122.37977 29 ft 14 kts 131°
2026-04-20 03:25 37.61865 -122.37907 29 ft 12 kts 149°
2026-04-20 03:25 37.61817 -122.37824 29 ft 14 kts 114°
2026-04-20 03:26 37.61775 -122.37698 29 ft 17 kts 112°
2026-04-20 03:26 37.61725 -122.37542 29 ft 21 kts 111°
2026-04-20 03:26 37.61658 -122.37367 29 ft 24 kts 118°
2026-04-20 03:26 37.61575 -122.37170 28 ft 27 kts 118°
2026-04-20 03:27 37.61483 -122.36953 29 ft 29 kts 117°
2026-04-20 03:27 37.61353 -122.36754 29 ft 30 kts 121°
2026-04-20 03:27 37.61252 -122.36512 29 ft 32 kts 118°
2026-04-20 03:27 37.61143 -122.36256 28 ft 34 kts 118°
2026-04-20 03:28 37.61052 -122.36030 29 ft 20 kts 105°
2026-04-20 03:28 37.61095 -122.35906 29 ft 12 kts 28°
2026-04-20 03:28 37.61200 -122.35908 29 ft 0 kts 297°
2026-04-20 03:30 37.61215 -122.35943 29 ft 26 kts 297°
2026-04-20 03:30 37.61450 -122.36519 29 ft 119 kts 296°
2026-04-20 03:31 37.61913 -122.37750 72 ft 180 kts 302°
2026-04-20 03:31 37.62617 -122.39120 753 ft 185 kts 298°
2026-04-20 03:31 37.63238 -122.40524 1639 ft 185 kts 294°
2026-04-20 03:31 37.63840 -122.41941 2381 ft 186 kts 292°
2026-04-20 03:32 37.64456 -122.43404 3172 ft 193 kts 291°
2026-04-20 03:32 37.65143 -122.45035 3431 ft 228 kts 291°
2026-04-20 03:32 37.65934 -122.46892 3609 ft 251 kts 293°
2026-04-20 03:32 37.66604 -122.48886 4273 ft 252 kts 278°
2026-04-20 03:33 37.66611 -122.51106 4735 ft 252 kts 247°
2026-04-20 03:33 37.65732 -122.52970 5462 ft 246 kts 218°
2026-04-20 03:33 37.64248 -122.53972 6259 ft 245 kts 190°
2026-04-20 03:33 37.62556 -122.53899 7011 ft 248 kts 167°
2026-04-20 03:34 37.60897 -122.53219 7756 ft 253 kts 161°
2026-04-20 03:34 37.59237 -122.52416 8543 ft 258 kts 161°
2026-04-20 03:34 37.57527 -122.51576 8958 ft 264 kts 161°
2026-04-20 03:34 37.55822 -122.50739 9342 ft 264 kts 161°
2026-04-20 03:35 37.54101 -122.49901 9999 ft 264 kts 162°
2026-04-20 03:35 37.52318 -122.49039 10305 ft 288 kts 162°
2026-04-20 03:35 37.50383 -122.48133 10442 ft 313 kts 164°
2026-04-20 03:35 37.48177 -122.47668 10660 ft 330 kts 181°
2026-04-20 03:36 37.45878 -122.47890 11430 ft 333 kts 187°
2026-04-20 03:36 37.43579 -122.48306 12244 ft 335 kts 189°
2026-04-20 03:36 37.41280 -122.48769 13092 ft 337 kts 189°
2026-04-20 03:36 37.38951 -122.49240 13909 ft 340 kts 189°
2026-04-20 03:37 37.36610 -122.49704 14615 ft 343 kts 189°
2026-04-20 03:37 37.34244 -122.50164 15325 ft 346 kts 189°
2026-04-20 03:37 37.31854 -122.50621 16021 ft 349 kts 189°
2026-04-20 03:37 37.29441 -122.51079 16708 ft 352 kts 189°
2026-04-20 03:38 37.27003 -122.51538 17392 ft 356 kts 189°
2026-04-20 03:38 37.24543 -122.52000 18077 ft 359 kts 189°
2026-04-20 03:38 37.22056 -122.52466 18676 ft 363 kts 189°
2026-04-20 03:38 37.19550 -122.52934 19254 ft 366 kts 189°
2026-04-20 03:39 37.17051 -122.53401 19830 ft 369 kts 189°
2026-04-20 03:39 37.14501 -122.53877 20388 ft 372 kts 190°
2026-04-20 03:39 37.11891 -122.54363 20962 ft 376 kts 190°
2026-04-20 03:39 37.09325 -122.54841 21514 ft 379 kts 190°
2026-04-20 03:40 37.06675 -122.55335 22068 ft 382 kts 190°
2026-04-20 03:40 37.04022 -122.55789 22607 ft 387 kts 187°
2026-04-20 03:40 37.01315 -122.55864 23144 ft 393 kts 178°
2026-04-20 03:40 36.98641 -122.55208 23634 ft 403 kts 166°
2026-04-20 03:41 36.96042 -122.53761 24021 ft 413 kts 156°
2026-04-20 03:41 36.93539 -122.51920 24420 ft 420 kts 154°
2026-04-20 03:41 36.91058 -122.49953 24820 ft 425 kts 153°
2026-04-20 03:41 36.88551 -122.47959 25220 ft 428 kts 153°
2026-04-20 03:42 36.86011 -122.45979 25616 ft 432 kts 154°
2026-04-20 03:42 36.83435 -122.44014 25996 ft 435 kts 154°
2026-04-20 03:42 36.81149 -122.42296 26338 ft 438 kts 155°
2026-04-20 03:42 36.78517 -122.40338 26713 ft 442 kts 155°
2026-04-20 03:43 36.75858 -122.38371 27079 ft 446 kts 155°
2026-04-20 03:43 36.73177 -122.36392 27449 ft 450 kts 155°
2026-04-20 03:43 36.70470 -122.34396 27818 ft 454 kts 155°
2026-04-20 03:43 36.67747 -122.32390 28181 ft 458 kts 155°
2026-04-20 03:44 36.64989 -122.30359 28534 ft 461 kts 155°
2026-04-20 03:44 36.62215 -122.28317 28890 ft 465 kts 155°
2026-04-20 03:44 36.59417 -122.26260 29224 ft 468 kts 155°
2026-04-20 03:44 36.56601 -122.24190 29567 ft 472 kts 155°
2026-04-20 03:45 36.53800 -122.22132 29906 ft 475 kts 155°
2026-04-20 03:45 36.50940 -122.20034 30220 ft 479 kts 155°
2026-04-20 03:45 36.48193 -122.18021 30535 ft 481 kts 155°
2026-04-20 03:45 36.45303 -122.15902 30937 ft 482 kts 155°
2026-04-20 03:46 36.42412 -122.13784 31351 ft 482 kts 155°
2026-04-20 03:46 36.39525 -122.11672 31739 ft 483 kts 155°
2026-04-20 03:46 36.36628 -122.09554 32113 ft 483 kts 155°
2026-04-20 03:46 36.33730 -122.07439 32492 ft 483 kts 155°
2026-04-20 03:47 36.30835 -122.05327 32857 ft 483 kts 156°
2026-04-20 03:47 36.27923 -122.03207 32957 ft 486 kts 155°
2026-04-20 03:47 36.22098 -121.98983 32984 ft 485 kts 155°
2026-04-20 03:48 36.16272 -121.94769 32984 ft 485 kts 155°
2026-04-20 03:48 36.10402 -121.90519 32987 ft 486 kts 155°
2026-04-20 03:49 36.04602 -121.86322 32985 ft 486 kts 155°
2026-04-20 03:49 35.98870 -121.81748 32984 ft 495 kts 145°
2026-04-20 03:50 35.94235 -121.75340 32990 ft 506 kts 131°
2026-04-20 03:50 35.90158 -121.68246 32991 ft 507 kts 130°
2026-04-20 03:51 35.85991 -121.61234 32991 ft 506 kts 131°
2026-04-20 03:51 35.81710 -121.54344 32994 ft 506 kts 132°
2026-04-20 03:52 35.77397 -121.47503 32994 ft 506 kts 132°
2026-04-20 03:52 35.73075 -121.40655 32987 ft 506 kts 132°
2026-04-20 03:53 35.68758 -121.33815 32998 ft 506 kts 132°
2026-04-20 03:53 35.64433 -121.26972 33000 ft 506 kts 132°
2026-04-20 03:54 35.60106 -121.20139 33000 ft 506 kts 132°
2026-04-20 03:54 35.55773 -121.13312 33000 ft 506 kts 131°
2026-04-20 03:55 35.51460 -121.06477 32995 ft 507 kts 130°
2026-04-20 03:55 35.47315 -120.99458 32998 ft 508 kts 129°
2026-04-20 03:56 35.43253 -120.92374 33000 ft 508 kts 128°
2026-04-20 03:56 35.39185 -120.85295 32994 ft 508 kts 128°
2026-04-20 03:57 35.35099 -120.78230 32991 ft 508 kts 129°
2026-04-20 03:57 35.31010 -120.71184 32987 ft 508 kts 128°
2026-04-20 03:58 35.26916 -120.64143 32990 ft 508 kts 129°
2026-04-20 03:58 35.22817 -120.57108 32989 ft 507 kts 128°
2026-04-20 03:59 35.18716 -120.50083 32984 ft 508 kts 128°
2026-04-20 03:59 35.14610 -120.43064 32992 ft 508 kts 128°
2026-04-20 04:00 35.10495 -120.36043 32985 ft 508 kts 128°
2026-04-20 04:00 35.06399 -120.29068 32991 ft 508 kts 128°
2026-04-20 04:01 35.02269 -120.22066 32990 ft 508 kts 128°
2026-04-20 04:01 34.98132 -120.15099 32991 ft 507 kts 128°
2026-04-20 04:02 34.94029 -120.08171 32980 ft 507 kts 128°
2026-04-20 04:02 34.89871 -120.01149 32977 ft 507 kts 128°
2026-04-20 04:03 34.85742 -119.94185 32971 ft 507 kts 128°
2026-04-20 04:03 34.82308 -119.88405 32975 ft 507 kts 128°
2026-04-20 04:04 34.77507 -119.80335 32964 ft 506 kts 128°
2026-04-20 04:04 34.74049 -119.74525 32970 ft 507 kts 128°
2026-04-20 04:05 34.69893 -119.67582 32970 ft 507 kts 128°
2026-04-20 04:05 34.65749 -119.60667 32965 ft 506 kts 128°
2026-04-20 04:06 34.61602 -119.53757 32964 ft 507 kts 128°
2026-04-20 04:06 34.57448 -119.46846 32968 ft 506 kts 128°
2026-04-20 04:07 34.53287 -119.39956 32969 ft 506 kts 128°
2026-04-20 04:07 34.49111 -119.33081 32972 ft 506 kts 128°
2026-04-20 04:08 34.44986 -119.26277 32981 ft 506 kts 128°
2026-04-20 04:08 34.40825 -119.19408 32982 ft 506 kts 128°
2026-04-20 04:09 34.36653 -119.12532 32989 ft 506 kts 128°
2026-04-20 04:09 34.32486 -119.05680 32996 ft 506 kts 128°
2026-04-20 04:10 34.28315 -118.98834 32997 ft 506 kts 128°
2026-04-20 04:10 34.24163 -118.92032 32993 ft 506 kts 128°
2026-04-20 04:11 34.20397 -118.85874 32987 ft 506 kts 128°
2026-04-20 04:11 34.16214 -118.79047 32978 ft 505 kts 128°
2026-04-20 04:12 34.12031 -118.72231 32969 ft 505 kts 128°
2026-04-20 04:12 34.07846 -118.65425 32989 ft 505 kts 128°
2026-04-20 04:13 34.03647 -118.58631 32998 ft 505 kts 128°
2026-04-20 04:13 33.99440 -118.51858 33001 ft 504 kts 128°
2026-04-20 04:14 33.95018 -118.45316 32996 ft 503 kts 133°
2026-04-20 04:14 33.90335 -118.39222 32998 ft 502 kts 134°
2026-04-20 04:15 33.85568 -118.33122 32998 ft 495 kts 134°
2026-04-20 04:15 33.83987 -118.31086 32994 ft 493 kts 134°
2026-04-20 04:16 33.81085 -118.27333 32988 ft 492 kts 134°
2026-04-20 04:16 33.76427 -118.21274 32239 ft 497 kts 134°
2026-04-20 04:17 33.74127 -118.18247 31387 ft 489 kts 133°
2026-04-20 04:17 33.71826 -118.15208 30591 ft 492 kts 133°
2026-04-20 04:17 33.69520 -118.12160 29697 ft 493 kts 133°
2026-04-20 04:17 33.67210 -118.09110 28763 ft 493 kts 133°
2026-04-20 04:18 33.64924 -118.06092 27871 ft 487 kts 133°
2026-04-20 04:18 33.62662 -118.03109 27127 ft 479 kts 133°
2026-04-20 04:18 33.60427 -118.00167 26483 ft 473 kts 133°
2026-04-20 04:18 33.58223 -117.97268 25896 ft 467 kts 133°
2026-04-20 04:19 33.56013 -117.94450 25328 ft 462 kts 135°
2026-04-20 04:19 33.53751 -117.91726 24742 ft 457 kts 137°
2026-04-20 04:19 33.51503 -117.89097 24168 ft 452 kts 137°
2026-04-20 04:19 33.49252 -117.86496 23593 ft 447 kts 137°
2026-04-20 04:20 33.47031 -117.83932 22926 ft 441 kts 137°
2026-04-20 04:20 33.44857 -117.81428 22330 ft 436 kts 137°
2026-04-20 04:20 33.42646 -117.78971 21753 ft 431 kts 139°
2026-04-20 04:20 33.40438 -117.76588 21174 ft 426 kts 140°
2026-04-20 04:21 33.38234 -117.74241 20613 ft 421 kts 140°
2026-04-20 04:21 33.36053 -117.71926 20054 ft 417 kts 140°
2026-04-20 04:21 33.33902 -117.69643 19513 ft 412 kts 140°
2026-04-20 04:21 33.31767 -117.67375 19111 ft 408 kts 140°
2026-04-20 04:22 33.29658 -117.65132 18739 ft 405 kts 140°
2026-04-20 04:22 33.27560 -117.62898 18004 ft 400 kts 140°
2026-04-20 04:22 33.25494 -117.60700 17349 ft 395 kts 140°
2026-04-20 04:22 33.23428 -117.58511 16777 ft 397 kts 140°
2026-04-20 04:23 33.21385 -117.56351 16241 ft 390 kts 140°
2026-04-20 04:23 33.19365 -117.54216 15732 ft 385 kts 140°
2026-04-20 04:23 33.17368 -117.52105 15226 ft 382 kts 140°
2026-04-20 04:23 33.15387 -117.50015 14739 ft 378 kts 140°
2026-04-20 04:24 33.13354 -117.48052 14237 ft 375 kts 144°
2026-04-20 04:24 33.12813 -117.47569 14124 ft 374 kts 145°
2026-04-20 04:24 33.10959 -117.45974 13670 ft 372 kts 146°
2026-04-20 04:24 33.08868 -117.44229 13172 ft 369 kts 146°
2026-04-20 04:25 33.06771 -117.42493 12683 ft 366 kts 146°
2026-04-20 04:25 33.04686 -117.40765 12305 ft 363 kts 146°
2026-04-20 04:25 33.03171 -117.39503 12220 ft 348 kts 146°
2026-04-20 04:25 33.01253 -117.37899 12121 ft 326 kts 146°
2026-04-20 04:26 32.99457 -117.36395 12017 ft 306 kts 146°
2026-04-20 04:26 32.97764 -117.34976 11903 ft 288 kts 146°
2026-04-20 04:26 32.96175 -117.33645 11791 ft 271 kts 146°
2026-04-20 04:26 32.94654 -117.32371 11696 ft 267 kts 146°
2026-04-20 04:27 32.93133 -117.31100 11554 ft 268 kts 146°
2026-04-20 04:27 32.91607 -117.29827 11251 ft 269 kts 146°
2026-04-20 04:27 32.90068 -117.28543 10776 ft 270 kts 146°
2026-04-20 04:27 32.88550 -117.27276 10341 ft 269 kts 146°
2026-04-20 04:28 32.87020 -117.25999 9885 ft 268 kts 146°
2026-04-20 04:28 32.85498 -117.24728 9400 ft 267 kts 146°
2026-04-20 04:28 32.83999 -117.23477 8960 ft 265 kts 146°
2026-04-20 04:28 32.82501 -117.22210 8525 ft 263 kts 143°
2026-04-20 04:29 32.81284 -117.20613 8098 ft 262 kts 120°
2026-04-20 04:29 32.80615 -117.18615 7717 ft 260 kts 109°
2026-04-20 04:29 32.80128 -117.16546 7326 ft 259 kts 107°
2026-04-20 04:29 32.79678 -117.14492 6971 ft 256 kts 107°
2026-04-20 04:30 32.79236 -117.12458 6607 ft 250 kts 107°
2026-04-20 04:30 32.78806 -117.10482 6306 ft 252 kts 107°
2026-04-20 04:30 32.78377 -117.08525 6110 ft 234 kts 107°
2026-04-20 04:30 32.77917 -117.06715 5999 ft 227 kts 114°
2026-04-20 04:31 32.77330 -117.05067 5966 ft 204 kts 116°
2026-04-20 04:31 32.76755 -117.03553 5985 ft 201 kts 117°
2026-04-20 04:31 32.76177 -117.02047 5983 ft 200 kts 117°
2026-04-20 04:31 32.75600 -117.00548 5988 ft 200 kts 117°
2026-04-20 04:32 32.74962 -116.99090 5983 ft 198 kts 128°
2026-04-20 04:32 32.73968 -116.97997 5697 ft 200 kts 154°
2026-04-20 04:32 32.72633 -116.97693 5207 ft 191 kts 188°
2026-04-20 04:32 32.71417 -116.98301 4850 ft 195 kts 219°
2026-04-20 04:33 32.70686 -116.99584 4467 ft 188 kts 250°
2026-04-20 04:33 32.70375 -117.01040 4082 ft 178 kts 256°
2026-04-20 04:33 32.70121 -117.02462 3741 ft 175 kts 257°
2026-04-20 04:33 32.69997 -117.03864 3504 ft 171 kts 278°
2026-04-20 04:34 32.70250 -117.05250 3614 ft 174 kts 282°
2026-04-20 04:34 32.70540 -117.06658 3501 ft 177 kts 283°
2026-04-20 04:34 32.70840 -117.08059 3142 ft 173 kts 283°
2026-04-20 04:34 32.71144 -117.09441 2776 ft 173 kts 284°
2026-04-20 04:35 32.71453 -117.10812 2469 ft 172 kts 285°
2026-04-20 04:35 32.71771 -117.12192 1906 ft 169 kts 283°
2026-04-20 04:35 32.72012 -117.13544 1228 ft 168 kts 281°
2026-04-20 04:35 32.72279 -117.14625 820 ft 162 kts 287°
2026-04-20 04:36 32.72885 -117.17030 274 ft 160 kts 286°
2026-04-20 04:36 32.73175 -117.18220 44 ft 158 kts 286°
2026-04-20 04:36 32.73444 -117.19315 29 ft 108 kts 285°
2026-04-20 04:37 32.73580 -117.19885 32 ft 43 kts 286°
2026-04-20 04:37 32.73633 -117.20105 31 ft 22 kts 285°
2026-04-20 04:37 32.73668 -117.20250 29 ft 17 kts 287°
2026-04-20 04:37 32.73691 -117.20352 30 ft 8 kts 273°
2026-04-20 04:38 32.73684 -117.20385 30 ft 1 kts 238°
2026-04-20 04:38 32.73671 -117.20399 30 ft 6 kts 221°
2026-04-20 04:38 32.73638 -117.20417 29 ft 4 kts 199°
2026-04-20 04:38 32.73628 -117.20419 30 ft 0 kts 193°
2026-04-20 04:40 32.73622 -117.20420 30 ft 2 kts 184°
2026-04-20 04:40 32.73603 -117.20398 30 ft 9 kts 124°
2026-04-20 04:41 32.73568 -117.20264 30 ft 20 kts 105°
2026-04-20 04:41 32.73529 -117.20108 28 ft 19 kts 107°
2026-04-20 04:41 32.73491 -117.19956 30 ft 19 kts 106°
2026-04-20 04:41 32.73455 -117.19806 30 ft 19 kts 105°
2026-04-20 04:42 32.73420 -117.19658 30 ft 19 kts 105°
2026-04-20 04:42 32.73386 -117.19510 30 ft 18 kts 105°
2026-04-20 04:42 32.73350 -117.19366 30 ft 18 kts 107°
2026-04-20 04:42 32.73314 -117.19222 28 ft 18 kts 106°
2026-04-20 04:43 32.73279 -117.19080 30 ft 18 kts 106°
2026-04-20 04:43 32.73245 -117.18940 30 ft 18 kts 106°
2026-04-20 04:43 32.73213 -117.18801 30 ft 17 kts 105°
2026-04-20 04:43 32.73180 -117.18662 30 ft 17 kts 105°
2026-04-20 04:44 32.73158 -117.18573 30 ft 5 kts 107°
2026-04-20 04:44 32.73157 -117.18569 30 ft 0 kts 107°
2026-04-20 04:48 32.73151 -117.18545 30 ft 8 kts 107°
2026-04-20 04:48 32.73146 -117.18509 30 ft 6 kts 88°
2026-04-20 04:48 32.73188 -117.18469 29 ft 11 kts 19°
2026-04-20 04:49 32.73294 -117.18433 30 ft 21 kts 14°
2026-04-20 04:49 32.73421 -117.18394 30 ft 18 kts
2026-04-20 04:49 32.73467 -117.18406 30 ft 2 kts 327°
2026-04-20 04:49 32.73485 -117.18422 29 ft 8 kts 322°
2026-04-20 04:50 32.73531 -117.18464 29 ft 8 kts 323°
2026-04-20 04:50 32.73576 -117.18497 29 ft 6 kts 339°
2026-04-20 04:50 32.73598 -117.18498 30 ft 6 kts 358°
2026-04-20 04:50 32.73658 -117.18503 30 ft 0 kts 354°
2026-04-20 04:51 32.73661 -117.18504 30 ft 1 kts 354°
2026-04-20 04:51 32.73672 -117.18505 30 ft 0 kts 354°